TimeMDT,TemperatureF,Dew PointF,Humidity,Sea Level PressureIn,VisibilityMPH,Wind Direction,Wind SpeedMPH,Gust SpeedMPH,PrecipitationIn,Events,Conditions,WindDirDegrees,DateUTC
12:15 AM,60.1,38.1,44,29.79,10.0,SSW,6.9,-,N/A,,Clear,210,2012-10-03 06:15:00
12:35 AM,57.7,38.3,48,29.79,10.0,SSW,10.4,-,N/A,,Clear,200,2012-10-03 06:35:00
12:55 AM,55.2,37.9,52,29.79,10.0,WSW,4.6,-,N/A,,Clear,250,2012-10-03 06:55:00
1:15 AM,53.2,38.5,57,29.79,10.0,SW,5.8,-,N/A,,Clear,220,2012-10-03 07:15:00
1:35 AM,51.6,38.3,60,29.79,10.0,Calm,Calm,-,N/A,,Clear,0,2012-10-03 07:35:00
1:55 AM,50.0,37.8,63,29.78,10.0,South,3.5,-,N/A,,Clear,190,2012-10-03 07:55:00
2:15 AM,48.2,37.0,65,29.78,10.0,SSE,3.5,-,N/A,,Clear,160,2012-10-03 08:15:00
2:35 AM,47.8,37.4,67,29.78,10.0,Calm,Calm,-,N/A,,Clear,0,2012-10-03 08:35:00
2:55 AM,43.3,34.9,72,29.78,10.0,Calm,Calm,-,N/A,,Clear,0,2012-10-03 08:55:00
3:15 AM,41.4,33.1,72,29.78,10.0,Calm,Calm,-,N/A,,Clear,0,2012-10-03 09:15:00
3:35 AM,41.5,33.6,73,29.78,10.0,Calm,Calm,-,N/A,,Clear,0,2012-10-03 09:35:00
3:55 AM,39.7,32.5,75,29.78,10.0,Calm,Calm,-,N/A,,Clear,0,2012-10-03 09:55:00
4:15 AM,39.9,34.3,80,29.78,10.0,Calm,Calm,-,N/A,,Clear,0,2012-10-03 10:15:00
4:35 AM,39.4,33.1,78,29.78,10.0,Calm,Calm,-,N/A,,Clear,0,2012-10-03 10:35:00
4:55 AM,39.0,32.7,78,29.78,10.0,Calm,Calm,-,N/A,,Clear,0,2012-10-03 10:55:00
5:15 AM,37.6,32.2,81,29.78,10.0,Calm,Calm,-,N/A,,Clear,0,2012-10-03 11:15:00
5:35 AM,41.5,34.7,77,29.78,10.0,Calm,Calm,-,N/A,,Clear,0,2012-10-03 11:35:00
5:55 AM,40.3,34.3,79,29.78,10.0,SW,4.6,-,N/A,,Clear,220,2012-10-03 11:55:00
6:15 AM,38.7,32.9,80,29.78,10.0,Calm,Calm,-,N/A,,Clear,0,2012-10-03 12:15:00
6:35 AM,39.9,33.8,79,29.78,10.0,Calm,Calm,-,N/A,,Clear,0,2012-10-03 12:35:00
6:55 AM,41.7,34.9,77,29.78,10.0,Calm,Calm,-,N/A,,Clear,0,2012-10-03 12:55:00
7:15 AM,40.5,33.8,77,29.78,10.0,Calm,Calm,-,N/A,,Clear,0,2012-10-03 13:15:00
7:35 AM,42.1,34.2,74,29.78,10.0,Calm,Calm,-,N/A,,Clear,0,2012-10-03 13:35:00
7:55 AM,46.8,35.8,66,29.77,10.0,Calm,Calm,-,N/A,,Clear,0,2012-10-03 13:55:00
8:15 AM,51.8,36.0,55,29.78,10.0,SW,4.6,-,N/A,,Clear,230,2012-10-03 14:15:00
8:35 AM,56.7,35.8,46,29.78,10.0,Calm,Calm,-,N/A,,Clear,0,2012-10-03 14:35:00
9:15 AM,63.7,34.3,34,29.77,10.0,SSW,4.6,-,N/A,,Clear,210,2012-10-03 15:15:00
9:35 AM,68.7,34.2,28,29.77,10.0,South,3.5,-,N/A,,Clear,170,2012-10-03 15:35:00
9:55 AM,72.3,34.3,25,29.76,10.0,SW,3.5,-,N/A,,Clear,220,2012-10-03 15:55:00
10:15 AM,80.4,32.7,18,29.75,10.0,West,10.4,18.4,N/A,,Clear,280,2012-10-03 16:15:00
10:35 AM,83.8,29.1,14,29.75,10.0,WNW,17.3,24.2,N/A,,Clear,300,2012-10-03 16:35:00
10:55 AM,86.0,29.1,13,29.75,10.0,WNW,19.6,26.5,N/A,,Clear,290,2012-10-03 16:55:00
11:15 AM,87.1,29.1,12,29.74,10.0,West,21.9,33.4,N/A,,Clear,280,2012-10-03 17:15:00
11:55 AM,85.5,29.1,13,29.74,10.0,NNW,16.1,27.6,N/A,,Clear,330,2012-10-03 17:55:00
12:15 PM,88.2,27.9,11,29.73,10.0,NW,20.7,32.2,N/A,,Clear,310,2012-10-03 18:15:00
12:35 PM,88.7,27.5,11,29.72,10.0,NW,24.2,34.5,N/A,,Clear,320,2012-10-03 18:35:00
12:55 PM,88.9,27.0,11,29.71,10.0,NNW,27.6,33.4,N/A,,Clear,330,2012-10-03 18:55:00
1:15 PM,89.2,27.1,11,29.71,10.0,NNW,24.2,31.1,N/A,,Clear,330,2012-10-03 19:15:00
1:35 PM,89.1,27.0,11,29.71,10.0,NW,19.6,26.5,N/A,,Clear,310,2012-10-03 19:35:00
1:55 PM,89.6,27.0,10,29.72,10.0,NW,17.3,26.5,N/A,,Clear,310,2012-10-03 19:55:00
2:15 PM,89.8,26.8,10,29.72,10.0,NNW,11.5,26.5,N/A,,Clear,340,2012-10-03 20:15:00
2:35 PM,89.6,26.4,10,29.73,10.0,NW,11.5,25.3,N/A,,Clear,320,2012-10-03 20:35:00
2:55 PM,87.1,25.9,11,29.73,10.0,NW,23.0,26.5,N/A,,Clear,320,2012-10-03 20:55:00
3:15 PM,88.3,23.9,10,29.73,10.0,NW,19.6,29.9,N/A,,Clear,310,2012-10-03 21:15:00
3:35 PM,81.7,30.2,15,29.77,5.0,North,29.9,46.0,N/A,,Haze,360,2012-10-03 21:35:00
3:55 PM,80.6,31.5,17,29.79,10.0,North,31.1,38.0,N/A,,Clear,10,2012-10-03 21:55:00
4:15 PM,77.0,34.7,22,29.82,10.0,North,32.2,38.0,N/A,,Clear,10,2012-10-03 22:15:00
4:55 PM,70.3,35.6,28,29.88,10.0,North,28.8,38.0,N/A,,Clear,10,2012-10-03 22:55:00
5:15 PM,68.2,35.6,30,29.91,10.0,North,31.1,35.7,N/A,,Clear,10,2012-10-03 23:15:00
5:35 PM,65.3,35.6,33,29.93,10.0,North,28.8,36.8,N/A,,Clear,360,2012-10-03 23:35:00
5:55 PM,63.5,35.6,35,29.96,10.0,North,25.3,36.8,N/A,,Clear,360,2012-10-03 23:55:00
6:15 PM,61.3,36.1,39,29.98,10.0,North,28.8,35.7,N/A,,Clear,360,2012-10-04 00:15:00
6:35 PM,58.5,36.0,43,30.02,10.0,North,24.2,38.0,N/A,,Clear,10,2012-10-04 00:35:00
7:15 PM,54.9,35.6,48,30.08,10.0,North,25.3,33.4,N/A,,Clear,10,2012-10-04 01:15:00
7:35 PM,52.9,35.6,52,30.09,10.0,North,28.8,36.8,N/A,,Clear,360,2012-10-04 01:35:00
7:55 PM,50.4,35.8,57,30.12,10.0,North,23.0,31.1,N/A,,Clear,360,2012-10-04 01:55:00
8:35 PM,48.7,36.9,64,30.18,10.0,North,21.9,33.4,N/A,,Scattered Clouds,350,2012-10-04 02:35:00
8:55 PM,48.2,36.5,64,30.19,10.0,North,20.7,29.9,N/A,,Overcast,350,2012-10-04 02:55:00
9:15 PM,46.8,34.5,62,30.19,10.0,North,24.2,33.4,N/A,,Scattered Clouds,360,2012-10-04 03:15:00
9:35 PM,46.4,34.7,64,30.21,10.0,North,17.3,24.2,N/A,,Clear,10,2012-10-04 03:35:00
9:55 PM,45.0,33.3,64,30.24,10.0,North,11.5,-,N/A,,Clear,350,2012-10-04 03:55:00
10:15 PM,44.4,32.2,62,30.22,10.0,North,20.7,27.6,N/A,,Clear,350,2012-10-04 04:15:00
10:35 PM,44.6,30.9,59,30.23,10.0,North,26.5,34.5,N/A,,Clear,350,2012-10-04 04:35:00
10:55 PM,44.6,30.7,58,30.22,10.0,North,26.5,33.4,N/A,,Scattered Clouds,350,2012-10-04 04:55:00
11:15 PM,44.6,30.6,58,30.25,10.0,North,20.7,32.2,N/A,,Scattered Clouds,350,2012-10-04 05:15:00
11:35 PM,44.6,30.2,57,30.26,10.0,North,23.0,31.1,N/A,,Clear,350,2012-10-04 05:35:00
11:55 PM,44.6,29.8,56,30.28,10.0,NNW,20.7,27.6,N/A,,Clear,340,2012-10-04 05:55:00